Preview of NWS' New Version of Forecast
This preview is not operational and should not be used for support decisions.

Regional Weather Roundup (RWR)

Issued by Philadelphia/Mt Holly (PHI)

                            
000
ASUS41 KPHI 170812
RWRPHI

REGIONAL WEATHER ROUNDUP
NATIONAL WEATHER SERVICE MOUNT HOLLY NJ
300 AM EST THU JAN 17 2019

NOTE:  "FAIR" INDICATES FEW OR NO CLOUDS BELOW 12,000 FEET WITH NO
SIGNIFICANT WEATHER AND/OR OBSTRUCTIONS TO VISIBILITY.

 * = STATION DOES NOT REPORT PRECIPITATION (E.G. RAIN, SNOW, ETC.) 
        OR FOG.

NJZ015>026-170900-
SOUTHERN NEW JERSEY
  
CITY           SKY/WX    TMP DP  RH WIND       PRES   REMARKS
POMONA         FAIR      26  22  84 NW5       30.30R WCI  20          
WILDWOOD*      CLOUDY    38  25  59 N5        30.31R WCI  34          
MILLVILLE      MOCLDY    32  24  72 NW3       30.30R                  
WRIGHTSTOWN    FAIR      29  16  58 N5        30.28R WCI  24          
MOUNT HOLLY    FAIR      31  16  54 VRB3      30.32R                  
TRENTON        FAIR      30  16  56 N9        30.30R WCI  22          

$$
NJZ001>014-170900-
NORTHERN NEW JERSEY
  
CITY           SKY/WX    TMP DP  RH WIND       PRES   REMARKS
SUSSEX         FAIR      22   9  57 VRB5      30.31R WCI  16          
ANDOVER*         N/A     22   6  50 NW8       30.31R WCI  12          
MORRISTOWN     FAIR      27   3  36 NW7       30.31R WCI  19          
NEWARK         MOCLDY    28   6  39 N12       30.31R WCI  18          
TETERBORO      FAIR      27   5  39 NW13G23   30.30R WCI  16          
CALDWELL       FAIR      25   3  38 NW7       30.31R WCI  17          
SOMERVILLE     FAIR      28  12  51 N9        30.31R WCI  19          
ALLAIRE*       FAIR      30  18  60 NW12      30.30R WCI  20          
TOMS RIVER*    FAIR      25  21  85 NW3       30.31R                  

$$
PAZ043-044-047-054-055-060>062-066>071-170900-
EASTERN PENNSYLVANIA
  
CITY           SKY/WX    TMP DP  RH WIND       PRES   REMARKS
PHILADELPHIA   CLOUDY    32  16  51 N6        30.32R WCI  26          
NORTH PHILA    FAIR      31  15  52 N6        30.33R WCI  25          
BLUE BELL*     FAIR      30  16  55 CALM      30.32R                  
DOYLESTOWN     FAIR      29  14  53 N9        30.30R WCI  20          
QUAKERTOWN*    CLEAR     28  14  54 N5G12     30.30R WCI  23          
PERKASIE*      FAIR      27  14  59 N6        30.30R WCI  20          
POTTSTOWN      FAIR      28  14  55 N3        30.32R                  
LANCASTER      FAIR      32  18  56 N5        30.30R WCI  27          
COATESVILLE    FAIR      30  18  59 N5        30.29S WCI  25          
READING        NOT AVBL                                               
ALLENTOWN      FAIR      27  14  58 N7        30.31R WCI  19          
MOUNT POCONO   FAIR      15   6  67 NW10      30.20S WCI   2          
HAZLETON       FAIR      19  10  68 N3        30.26S                  
LEHIGHTON      FAIR      27  14  59 N6        30.32R WCI  20          
WILKES BARRE   FAIR      18   7  62 N5        30.30R WCI  11          

$$
DEZALL-MDZ008-012-015-019-020-170900-
DELAWARE AND EASTERN MARYLAND
  
CITY           SKY/WX    TMP DP  RH WIND       PRES   REMARKS
WILMINGTON     MOCLDY    33  24  69 N7        30.32R WCI  27          
DOVER          CLOUDY    37  24  61 W6        30.30S WCI  32          
GEORGETOWN     CLOUDY    33  25  72 CALM      30.32R                  
EASTON         CLOUDY    36  27  71 CALM      30.35S                  
PATUXENT       MOCLDY    35  28  75 N7        30.32  WCI  29          
OCEAN CITY     FAIR      26  23  88 NW3       30.31S                  
WALLOPS ISLAND FAIR      27  24  89 CALM      30.33R                  
CAMBRIDGE      PTCLDY    28  28 100 CALM      30.33R                  
SALISBURY      MOCLDY    29  28  96 CALM      30.31S                  

$$
PAZ001-021-NYZ056-072-MDZ011-DCZ001-170900-
OTHER NEARBY LOCATIONS
  
CITY           SKY/WX    TMP DP  RH WIND       PRES   REMARKS
HARRISBURG     CLOUDY    32  16  51 NW8       30.30R WCI  25          
STATE COLLEGE  FAIR      21  15  78 CALM      30.28R                  
WILLIAMSPORT   FAIR      22  12  65 N3        30.33R                  
BINGHAMTON     FAIR      10   6  84 NW5       30.24R WCI   2          
NEW YORK CITY  FAIR      28   4  35 MISG      30.32R                  
BALTIMORE      CLOUDY    36  25  64 W6        30.31R WCI  31          
WASHINGTON DC  CLOUDY    39  23  52 W5        30.34R                  

$$